User: anonymous   Login
Location: Molveno
(46.1500°N, 10.9667°E)
Time: 08:37:04
(UTC+00:00)
Language:

Cosmos 1151 Rocket - Orbit

View from above orbital plane
View from above orbital plane
View from above satellite
View from above satellite

Ground track
Ground track

The orbit data is extracted from the following two-line orbital elements,

1 11672U 80005B   20272.82489547 +.00000099 +00000-0 +80885-5 0  9992
2 11672 082.5183 026.9489 0015310 296.6815 063.2835 14.88007648180676
Epoch (UTC): 28 September 2020 19:47:50
Eccentricity: 0.0015310
inclination: 82.5183°
perigee height: 593 km
apogee height: 615 km
right ascension of ascending node: 26.9489°
argument of perigee: 296.6815°
revolutions per day: 14.88007648
mean anomaly at epoch: 63.2835°
orbit number at epoch: 18067

The dashed part of the orbit path shows where the satellite is in the earth's shadow,  

DLR